Location: Buch
(49.7331°N, 12.1098°E)
Time: 02:59:37
(UTC+00:00)

Landsat 7 - Pass Details

Date: 29 September 2021
Orbit: 701 x 703 km, 98.0° (Epoch: 22 October)

Event Time Altitude Azimuth Distance (km) Brightness Sun altitude
Exits shadow 21:24:43 11° 287° (WNW) 2,082 6.7 -38.7°
Drops below altitude 10° 21:25:35 10° 297° (WNW) 2,178 6.9 -38.8°
Sets 21:29:25 0° 328° (NNW) 3,103 8.1 -39.1°
